Погода в Фергане

Погода в Фергане : погода сейчас, прогноз погоды и архив. Всё, что Вы хотите узнать о погоде в Фергане!

Поиск расширенной информации на нашем сайте:

Другие новости

Новости СМИ2

Главная страница сайта

Новости сайта

03.07.2017

Напоминаем, что на нашем специализированном сайте Метеоцентр.Азия вы можете получить высокодетализированные автоматические прогнозы погоды по пунктам России, СНГ и мира в авиационном формате (включающие направление и скорость ветра, видимость, явления погоды, количество и форму облачности, нижнюю и верхнюю границу облачности).


Погода в Фергане - сегодня

Время (UTC), дата Ветер
(°,м/с) 
Видим.   Явления Облачность Т
(°С)
Тd
(°С)
f(%) Тe
(°С)
Pmin
(гПа)
dP
(гПа)
Po
(мм)
O2
(г/м3)
Тmin Tmax R s Состояние
почвы
00 19.11.17 тихо ()   н/о    8/0 средняя, верхняя 
[Ac lent|Ci sp]
+4 +1.7 85 +4  1032.2  0.6  721  286           
03 19.11.17 тихо ()   10 км    3/0 верхняя 
[Ci fib]
+1.7 +0.3 90 +2  1034.1  1.3  722  289           
06 19.11.17 270 (З) 10 км    10/0 верхняя 
[Cs]
+8 +1.9 65 +9  1032.9  0.4  723  283  +1.5         
09 19.11.17 320 (СЗ) 10 км    5/0 верхняя 
[Cs]
+10.5 +1.9 55 +12  1030.4  -1.7  721  280           
12 19.11.17 тихо ()   10 км    8/0 верхняя 
[Cs]
+8.3 +2.3 66 +8  1030.6  -0.4  721  282           
15 19.11.17 120 (ЮВ) н/о    10/0 верхняя 
[Cs]
+3.9 +2.1 88 +5  1031.2  -0.5  721  286    +11       
18 19.11.17 140 (ЮВ) н/о    8/0 верхняя 
[Cs]
+2.7 +0 82 +2  1031.1  -0.4  720  287    +11       
21 19.11.17 070 (В) н/о    4/0 верхняя 
[Cs]
+2.5 -0.2 82 +2  1030.4  -0.7  720  287           
00 20.11.17 тихо ()   н/о    ясно 
+0.8 -1.2 86 +1  1030.3  -0.5  720  289           
03 20.11.17 160 (Ю) 10 км    3/0 верхняя 
[Ci fib]
+1.1 -2.1 79 +2  1030.6  0.3  720  289           
06 20.11.17 060 (СВ) 10 км    4/0 верхняя 
[Ci sp]
+9.3 +1.3 57 +10  1028.6  0.2  720  280  +0.5         
09 20.11.17 330 (СЗ) 10 км    6/0 верхняя 
[Ci sp]
+12.4 +1.9 49 +14  1025.6  -2.2  718  276           
12 20.11.17 350 (С) 10 км    8/0 верхняя 
[Cs]
+8.8 +4.5 74 +10  1026.1  -0.3  718  279           
15 20.11.17 тихо ()   н/о    ясно 
+3 +1.4 89 +3  1028.4  0.7  719  286    +12.6       
18 20.11.17 140 (ЮВ) н/о    ясно 
+2.2 -1.2 78 +3  1028.2  -0.3  718  287    +12.6       
21 20.11.17 150 (ЮВ) н/о    ясно 
+1.7 -2.7 73 +2  1027.8  -0.6  718  288           
00 21.11.17 140 (ЮВ) н/о    ясно 
+1.4 -3.8 68 +2  1027.5  -0.3  718  288           
03 21.11.17 130 (ЮВ) 10 км    ясно 
+0.3 -4.1 72 +1  1028.4  0.6  718  289  +0        замёрзшая 
06 21.11.17 360 (С) 10 км    ясно 
+10 -0.2 49 +11  1025.4  -0.5  718  279  +0         
09 21.11.17 050 (СВ) 10 км    4/0 верхняя 
[Cs]
+12.7 +0.9 44 +14  1022  -2.5  716  275           
12 21.11.17 тихо ()   10 км    5/0 верхняя 
[Cs]
+9.2 +3.4 67 +9  1022.2  -0.6  715  278           
15 21.11.17 120 (ЮВ) н/о    ясно 
+3.7 -0.3 75 +5  1023.8  0.2  716  284    +12.9       
18 21.11.17 120 (ЮВ) н/о    ясно 
+2.9 -2.9 66 +4  1024.1  716  286    +12.9       
21 21.11.17 150 (ЮВ) н/о    ясно 
+2.1 -4.7 61 +1  1023.5  -0.8  715  286           
00 22.11.17 150 (ЮВ) н/о    ясно 
+1.5 -5.5 60 +1  1023.2  -0.4  715  287           
Время (UTC), дата Ветер
(°,м/с) 
Видим.   Явления Облачность Т
(°С)
Тd
(°С)
f(%) Тe
(°С)
Pmin
(гПа)
dP
(гПа)
Po
(мм)
O2
(г/м3)
Тmin Tmax R s Состояние
почвы

Для получения пояснительной информации подведите курсор к названию столбца.

ПОГОДА в Фергане - архив

Всё, что Вы хотите узнать о погоде в Фергане - удобно и подробно!

Выберите нужную дату (начиная с 1 января 2015* года) и нажмите кнопку "Найти".
Будут отображены архивные сводки погоды по пункту Фергана, начиная с указанной даты.


Отображать данные в формате CSV (для использования в таблицах Excel)


Внимание! Наш архив погоды предназначен исключительно для личного некоммерческого использования в познавательных целях. Если Вам необходимы официальные справки о состоянии погоды (для производственных, юридических, коммерческих и т.п. целей), обращайтесь в органы Росгидромета.

*Примечание: данная дата относится к архиву по метеостанциям СССР (Россия, СНГ, Балтия).
Архив по метеостанциям Зарубежной Европы и Азии (кроме Китая) хранится 10 дней, по другим регионам земного шара (Китай, Африка, Америка, Австралия, Океания) - 1 день.

Фергана - район местоположения метеостанции


Название, широта, долгота, высота метеостанции:
Фергана 40.4°ш. 71.8°д. 605 м над ур. моря [Узбекистан]

Дополнительная информация

В oтличие oт бoльшинства пoгoдных сайтoв мы публикуем пoдрoбную метеoинфoрмацию в детальнoм прoфессиoнальнoм фoрмате.

Характеристики температуры и влажнoсти вoздуха измеряются на высoте 2 м в тени вдали oт зданий и деревьев.
Скoрoсть ветра измеряется на высoте 10 м (на урoвне рoста челoвека скoрoсть ветра ниже в 1.5-2 раза). Если метеoстанция нахoдится в гoрoде или в лесу, тo скoрoсть ветра занижена на 2-4 м/с пo сравнению с oткрытым местoм. Скoрoсть ветра над акватoриями крупных рек и oзёр, а также на вершинах хoлмoв на 2-5 м/с выше, чем в oбычных услoвиях.
Атмoсфернoе давление в разных тoчках местнoсти мoжет значительнo oтличаться oт давления на метеoстанции, в зависимoсти oт услoвий рельефа (при пoдъёме на 10 м давление пoнижается примернo на 1 мм рт.ст.).